Flag for U.S.A. Weather past 2 weeks in Frankfort, Kentucky, U.S.A.

Now
51 °F

Clear.


Feels Like: 51 °F
Forecast: 52 / 76 °F
Wind: 3 mph from Northwest

Location: Capital City Airport

Current Time: Jul 29, 2014 at 7:03:34 AM

Latest Report: Jul 29, 2014 at 5:53 AM


Visibility: 10 mi

Pressure: 30.01 "Hg

Humidity: 89%

Dew point: 48 °F

Location of FrankfortLocation

Historic Weather in Frankfort — Graph

°F

Frankfort temperature yesterday

Maximum temperature yesterday: 73 °F (at 6:53 PM)
Minimum temperature yesterday: 62 °F (at 6:53 AM)
Average temperature yesterday: 68 °F

Past Weeks' High & Low Weather Summary

 TemperatureHumidityPressure
High89 °F (Jul 21, 4:53 PM)100% (Jul 20, 4:01 AM)30.16 "Hg (Jul 20, 4:01 AM)
Low51 °F (Jul 29, 5:53 AM)36% (Jul 17, 3:53 PM)29.70 "Hg (Jul 27, 5:53 PM)
Average71 °F75%29.99 "Hg
* Reported Jul 14 5:53 AM — Jul 29 5:53 AM, Frankfort, Weather by CustomWeather, © 2014

Note: Actual official high and low records may vary slightly from our data, if they occured in-between our weather recording intervals... More about our weather records

Advertising

Frankfort weather history for previous 24 hours

 ConditionsComfort  
Time TempWeatherWind HumidityBarometerVisibility
5:53 AM
Jul 29
51 °FClear.3 mph89%30.01 "Hg10 mi
4:53 AM53 °FClear.6 mph86%30.00 "Hg10 mi
3:53 AM53 °FClear.5 mph93%29.99 "Hg10 mi
2:53 AM56 °FClear.3 mph84%30.01 "Hg10 mi
1:53 AM57 °FClear.5 mph87%30.01 "Hg10 mi
12:53 AM58 °FClear.3 mph93%30.01 "Hg10 mi
11:53 PM
Jul 28
62 °FClear.3 mph80%30.00 "Hg10 mi
10:53 PM64 °FClear.8 mph75%30.01 "Hg10 mi
9:53 PM64 °FClear.No wind81%29.98 "Hg10 mi
8:53 PM67 °FSunny.3 mph71%29.97 "Hg10 mi
7:53 PM71 °FSunny.6 mph61%29.97 "Hg10 mi
6:53 PM73 °FSunny.10 mph59%29.97 "Hg10 mi
5:53 PM72 °FOvercast.13 mph64%29.98 "Hg10 mi
4:53 PM72 °FOvercast.10 mph64%29.98 "Hg10 mi
3:53 PM70 °FOvercast.8 mph68%29.98 "Hg10 mi
2:53 PM70 °FMostly cloudy.7 mph68%29.98 "Hg10 mi
1:53 PM71 °FOvercast.9 mph68%29.98 "Hg10 mi
12:53 PM68 °FMostly cloudy.6 mph73%29.97 "Hg10 mi
12:04 PM68 °FOvercast.7 mph73%29.99 "Hg10 mi
11:53 AM68 °FOvercast.6 mph70%29.97 "Hg10 mi
10:53 AM69 °FOvercast.13 mph68%29.94 "Hg10 mi
9:53 AM67 °FMostly cloudy.8 mph73%29.93 "Hg10 mi
8:53 AM67 °FScattered clouds.6 mph79%29.91 "Hg10 mi
7:53 AM65 °FSunny.7 mph81%29.90 "Hg10 mi
Weather by CustomWeather, © 2014

See weather overviewHow to use our weather pages